Location: Unspecified
(54.1780°N, 0.0000°E)
Time: 04:20:16
(UTC+00:00)

Altair - Pass Details

Date: 21 June 2019
Orbit: 1501 x 1683 km, 47.2° (Epoch: 12 October)

Event Time Altitude Azimuth Distance (km) Brightness Sun altitude
Rises 20:55:07 0° 234° (SW) 4,725 10.1 -2.6°
Reaches altitude 10° 20:58:16 10° 229° (SW) 3,766 9.6 -2.9°
Maximum altitude 21:07:18 49° 159° (SSE) 2,007 7.8 -3.8°
Drops below altitude 10° 21:16:42 10° 89° (E) 3,906 9.3 -4.6°
Sets 21:20:00 0° 84° (E) 4,911 9.8 -4.9°
